Temperature
19 20 20 20 20 20 20 20 20 20 20 20 20 20 20 20 20 20 20 20 20 20 20 19 19 19 19 19 19 19 19 19 19 19 19 19 19 19 19 19 18 19 19
20 20 20 20 20 20 20 20 20 20 20 20 20 20 20 20 20 20 20 20 20 20 19 19 19 19 19 19 19 19 19 19 19 19 19 19 19 19 19 19 18 19 19
20 20 20 20 20 20 20 20 20 20 20 20 20 20 20 20 20 20 20 20 20 19 19 19 19 19 19 19 19 19 19 19 19 19 19 19 19 19 19 19 18 18 18
20 20 20 20 20 20 20 20 20 20 20 20 20 20 20 20 20 20 20 19 19 19 19 19 19 19 19 19 19 19 19 19 19 19 19 19 19 19 19 19 18 18 18
20 20 20 20 20 20 20 20 20 20 20 20 20 20 20 20 20 19 19 19 19 19 19 19 19 19 19 19 19 19 19 18 19 19 18 19 19 19 19 19 18 18 18
20 20 20 20 20 20 20 20 20 20 20 20 20 20 20 20 19 19 19 19 19 19 19 19 19 19 19 19 19 19 18 18 18 18 18 18 19 19 19 19 18 18 18
20 20 20 20 20 20 20 20 20 20 20 20 20 20 20 19 19 19 19 19 19 19 19 19 19 19 19 19 19 19 18 18 18 18 18 18 19 19 19 19 18 18 18
20 20 20 20 20 20 20 20 20 20 20 20 20 19 19 19 19 19 19 19 19 19 19 19 19 19 19 19 19 18 18 18 18 18 18 18 19 19 19 18 18 18 18
19 19 19 19 19 19 19 19 19 19 19 19 19 19 19 19 19 19 19 19 19 19 19 19 19 19 19 19 19 18 18 18 18 18 18 18 18 19 19 18 18 18 18
19 19 19 19 19 19 19 19 19 19 19 19 19 19 19 19 19 19 19 19 19 19 19 19 19 19 19 19 19 18 18 18 18 18 18 18 18 18 19 18 18 18 18
18 18 18 18 18 18 19 18 18 18 19 19 19 19 19 19 19 19 19 18 18 18 19 19 19 19 19 19 19 18 18 18 18 18 18 18 18 18 18 18 18 18 18
18 18 18 18 18 18 18 18 18 18 18 18 18 18 18 18 18 18 18 18 18 18 18 19 19 19 19 19 19 18 18 18 18 18 18 18 18 18 18 18 18 18 18
17 17 17 17 17 17 18 18 18 18 18 18 18 18 18 18 18 18 18 18 18 18 18 18 19 19 19 19 18 18 18 18 18 18 18 18 18 18 18 18 18 18 18
17 17 17 17 17 17 17 17 17 17 17 18 18 18 18 18 18 18 18 18 18 18 18 18 19 19 19 18 18 18 18 18 18 18 18 18 18 18 18 18 18 18 18
17 16 16 16 16 17 17 17 17 17 17 17 17 18 18 18 18 18 18 18 18 18 18 18 18 18 18 18 18 18 18 18 18 18 18 18 18 18 18 18 18 18 18
16 16 16 16 16 16 16 16 16 17 17 17 17 17 17 17 18 18 18 18 18 18 18 18 18 18 18 18 18 18 18 18 18 18 18 18 18 18 18 18 18 18 18
15 15 15 15 15 15 15 16 16 16 16 16 17 17 17 17 17 17 17 17 18 18 18 18 18 18 18 18 18 18 18 18 18 18 18 18 18 18 18 18 18 18 18
15 15 15 15 15 15 15 15 15 15 16 16 16 17 17 17 17 17 17 17 17 18 18 18 18 18 18 18 18 18 18 18 18 18 18 18 18 18 18 18 18 18 18
14 14 14 14 14 14 14 15 15 15 15 15 16 16 16 17 17 17 17 17 17 17 17 18 17 18 18 18 18 18 18 18 18 18 18 18 18 18 18 18 17 17 17
14 14 14 14 14 14 14 14 14 15 15 15 15 15 16 16 16 16 17 17 17 17 17 17 17 17 18 18 18 18 18 18 18 18 18 18 18 18 18 18 17 17 17
14 14 13 13 13 14 14 14 14 14 15 15 15 15 15 16 16 16 16 16 17 17 17 17 17 17 17 17 17 17 18 18 18 18 18 18 18 18 18 17 17 17 17
13 13 13 13 13 13 13 13 13 14 14 14 14 14 15 15 15 16 16 16 16 16 17 17 17 17 17 17 17 17 17 17 18 18 18 18 18 18 17 17 17 17 17
13 13 13 13 13 13 13 13 13 13 14 14 14 14 14 14 15 15 15 15 16 16 16 16 16 16 16 17 17 17 17 17 17 18 18 18 18 17 17 17 17 17 17
13 13 13 12 12 12 12 12 13 13 13 13 13 14 14 14 15 15 15 15 15 16 16 16 16 16 16 16 16 16 17 17 17 17 17 17 17 17 17 17 17 17 17
13 13 13 12 12 12 12 12 12 12 13 13 13 13 14 14 14 14 15 15 15 15 15 16 16 16 16 16 16 16 16 16 17 17 17 17 17 17 17 17 17 17 17
13 13 13 12 12 12 12 12 12 12 12 13 13 13 13 14 14 14 14 15 15 15 15 15 15 15 15 16 16 16 16 16 16 17 17 17 17 17 17 17 17 17 17
Wind_Speed
5 7 11 12 12 12 11 11 11 10 10 9 8 8 8 8 8 8 8 8 8 8 8 7 7 7 8 8 8 8 8 8 8 8 8 8 8 8 8 8 9 9 9
8 10 12 12 12 12 11 11 10 10 9 9 8 8 8 8 8 7 7 7 7 7 7 7 7 6 7 7 6 7 7 7 7 6 6 7 8 8 8 8 8 8 9
10 11 12 12 12 11 11 10 10 9 9 8 8 7 7 7 6 6 6 6 6 6 6 6 6 6 6 6 5 6 6 7 7 5 6 5 6 7 8 8 8 8 8
12 12 12 12 12 11 11 10 9 9 8 8 7 7 6 6 5 5 5 5 5 5 6 5 5 5 5 4 4 4 6 7 7 6 6 5 5 7 7 7 7 7 7
11 12 12 13 12 11 11 10 9 9 8 7 7 7 6 6 5 4 5 5 5 5 5 5 5 4 4 3 2 3 5 6 7 7 7 7 6 7 7 6 6 6 6
9 12 13 13 11 11 10 10 9 9 8 7 7 6 6 6 5 5 5 5 5 5 5 5 4 4 3 2 1 2 4 6 6 6 7 7 6 7 7 6 6 6 7
8 10 12 12 11 10 10 9 9 9 8 8 7 7 7 6 6 6 6 5 5 5 5 5 4 3 2 1 1 1 3 5 5 6 6 6 6 7 7 6 6 6 7
7 7 9 11 11 11 10 10 10 9 9 9 8 8 7 7 7 7 7 6 6 6 6 5 5 4 4 3 2 2 2 4 4 5 6 6 7 7 7 7 6 7 8
6 4 3 4 5 7 9 10 10 11 11 10 10 9 9 8 8 8 8 8 7 7 7 7 6 6 5 5 4 4 3 2 3 5 7 7 8 8 7 7 7 6 8
6 5 4 3 1 2 5 9 10 11 11 12 12 11 11 11 10 10 10 10 10 10 10 9 8 8 7 7 7 6 4 1 3 5 7 8 9 9 8 7 7 7 8
7 5 4 3 4 3 4 6 9 10 11 12 12 13 13 12 12 12 12 13 13 12 12 11 10 10 9 9 9 8 4 1 3 5 8 10 10 9 8 8 7 7 8
6 5 4 5 6 5 4 4 5 6 8 10 10 12 12 12 13 12 14 16 16 15 14 13 12 11 10 9 9 8 4 4 4 7 9 12 12 10 9 8 8 8 8
4 5 4 4 5 5 4 4 3 4 5 7 9 11 11 11 11 12 11 13 15 15 13 12 12 11 9 8 8 7 6 6 6 9 11 13 12 11 10 9 9 8 8
5 5 5 4 3 4 4 4 3 3 4 5 8 9 8 6 6 7 8 10 10 11 10 9 8 10 10 10 10 8 7 7 8 10 12 14 13 12 11 10 9 9 9
7 7 6 5 4 4 3 3 3 4 4 6 7 8 8 5 5 5 5 7 9 10 9 7 7 7 7 8 9 9 7 8 11 12 12 15 14 13 12 11 10 10 10
8 8 7 6 5 5 3 4 3 4 5 6 6 7 8 7 5 4 5 5 7 9 10 9 8 7 7 6 7 8 8 10 12 13 12 14 15 14 13 12 11 11 11
6 7 8 7 6 6 6 5 5 5 5 4 5 7 7 7 6 4 4 5 6 9 9 7 7 6 6 6 7 7 6 9 11 13 13 12 13 14 14 13 12 12 12
6 7 8 9 8 7 6 5 5 6 5 5 6 6 7 8 7 4 4 5 6 7 6 5 5 5 5 4 4 4 5 6 9 11 12 12 12 12 14 14 14 13 13
7 7 8 8 8 8 7 5 5 6 5 5 6 5 6 7 7 5 4 4 5 4 5 6 5 4 4 3 4 4 4 6 7 9 9 11 13 13 13 15 15 15 14
7 7 8 8 8 8 7 5 4 5 5 5 4 5 7 6 7 5 4 4 4 4 4 4 4 4 3 3 3 2 2 4 5 6 7 9 11 13 14 13 14 14 15
7 8 8 9 9 7 6 5 5 5 5 5 4 6 6 6 6 4 4 4 4 5 5 5 4 4 3 2 2 0 1 0 3 4 5 5 7 11 12 13 13 12 13
6 7 8 9 9 8 6 5 4 4 4 4 4 5 5 5 5 4 4 4 5 4 5 6 5 4 3 4 3 2 0 1 1 2 3 5 6 7 8 12 12 12 12
6 7 7 8 9 9 8 6 5 4 4 4 4 4 4 5 4 3 3 4 4 4 5 6 6 6 5 4 4 4 4 4 2 1 2 3 5 5 6 8 11 13 14
6 6 6 7 8 8 8 6 6 5 5 5 5 4 5 4 3 3 2 3 4 4 5 6 6 5 5 5 3 3 3 3 3 2 1 1 3 5 5 5 6 10 13
6 6 6 7 7 8 8 7 6 5 5 5 5 5 5 5 4 3 2 2 3 3 5 6 6 6 5 5 4 3 3 2 2 3 2 1 1 2 4 4 3 6 10
6 6 6 7 7 8 8 8 6 7 7 7 6 5 5 4 4 4 3 2 2 2 3 5 6 7 6 6 5 4 4 4 4 4 3 3 2 2 2 3 4 4 7
Wind_Direction
159 165 146 138 135 133 132 132 131 130 129 126 122 117 113 109 106 103 102 102 100 96 92 87 85 80 74 71 68 65 62 59 57 60 67 72 73 73 78 90 99 102 105
154 157 145 139 136 134 134 133 133 133 132 129 126 122 118 115 112 107 104 106 106 103 99 94 91 85 79 73 67 62 57 52 49 57 76 79 79 80 83 93 102 105 107
144 149 145 141 138 136 136 135 135 135 135 133 131 127 124 121 119 116 113 110 110 112 111 106 101 94 85 75 64 56 48 41 39 59 98 97 88 88 91 94 100 108 116
145 149 149 146 143 142 142 140 140 140 140 142 141 138 133 130 127 125 127 125 122 121 121 117 112 106 96 79 60 43 34 28 34 79 102 107 92 94 95 93 99 106 117
147 151 153 151 149 149 149 148 148 148 148 149 151 148 147 146 144 142 140 139 137 135 131 128 126 121 109 90 57 30 24 23 48 102 110 104 94 95 95 95 99 107 116
144 152 158 156 156 156 157 158 159 159 161 162 162 162 162 165 166 163 158 152 148 149 151 145 143 139 130 116 56 10 12 22 64 115 125 113 104 101 97 98 103 112 121
145 155 164 163 166 168 170 171 173 175 177 178 179 179 181 182 183 182 177 173 168 165 164 162 166 170 170 177 244 328 358 18 91 129 137 122 116 109 102 101 105 111 122
137 150 166 173 176 181 184 186 189 191 193 194 194 196 196 197 198 195 191 189 185 184 182 181 189 196 201 218 245 280 335 15 89 137 153 145 133 118 110 106 105 111 120
84 95 124 174 188 197 199 201 203 204 206 207 207 208 208 209 209 206 204 202 201 201 200 199 205 211 216 229 246 264 295 7 118 156 163 158 144 130 122 116 111 114 124
57 50 38 25 346 248 230 223 219 216 217 217 216 216 215 215 216 217 217 216 214 211 210 211 214 219 225 236 247 258 277 4 145 176 166 164 153 141 133 126 121 120 127
42 34 24 1 331 305 262 240 237 231 229 228 226 225 222 220 221 224 226 224 223 220 217 218 221 225 231 241 250 258 267 185 174 179 172 171 160 151 144 136 130 127 130
22 19 19 1 345 323 293 268 251 242 243 238 232 230 227 223 223 228 230 229 227 225 222 222 225 231 236 243 255 261 242 199 188 183 187 179 168 160 153 148 143 138 136
10 8 5 350 349 348 332 314 285 276 270 255 244 236 232 230 229 231 228 232 230 226 222 224 226 231 234 239 247 251 234 209 202 192 196 185 175 167 162 159 156 152 147
7 356 345 339 341 347 347 332 304 284 265 257 252 245 234 229 228 226 222 218 214 213 210 216 220 228 235 240 243 244 231 208 200 193 198 189 180 174 171 168 165 164 160
3 353 344 350 350 342 335 320 322 293 277 267 265 257 238 226 228 223 220 215 211 207 208 214 220 226 232 237 238 234 220 202 190 188 195 192 182 180 178 176 175 172 169
2 353 344 353 351 345 334 316 306 300 293 286 276 270 255 235 227 218 216 213 211 210 214 216 218 222 228 229 230 227 213 191 187 188 191 191 186 183 183 183 181 179 177
354 351 346 348 355 343 332 317 318 303 294 286 283 282 272 252 234 222 217 214 214 210 211 216 224 226 230 227 225 220 197 181 182 186 187 187 188 189 189 189 186 185 183
356 350 345 351 344 333 325 313 312 308 296 287 287 286 278 269 253 234 225 220 212 205 203 205 214 224 227 219 211 202 183 176 177 182 184 187 187 191 195 195 192 191 190
359 349 344 340 338 331 322 314 311 311 299 292 293 290 284 277 268 248 235 228 213 201 203 211 204 206 215 215 210 196 177 173 177 180 183 189 191 192 193 197 197 196 194
1 355 348 343 337 332 324 318 314 316 310 302 293 286 283 277 267 248 235 229 215 205 201 200 199 200 200 199 206 198 188 178 177 179 186 188 194 197 195 194 196 200 199
359 354 349 346 341 340 334 328 322 319 313 309 297 296 291 284 271 249 243 227 217 212 208 198 191 195 202 177 132 82 330 264 187 187 184 179 189 195 196 198 196 195 200
349 345 347 345 340 338 329 313 290 291 290 289 295 311 307 298 282 257 233 227 219 211 208 200 191 182 186 175 154 140 180 311 283 209 183 182 187 185 190 200 200 200 199
342 339 343 337 336 334 333 329 328 324 315 324 322 322 313 312 302 278 243 229 220 208 208 207 199 186 187 187 168 157 164 207 232 271 201 187 182 176 185 191 197 204 205
331 330 333 334 336 335 338 339 341 339 323 306 305 308 316 322 313 304 264 233 223 213 210 214 207 196 182 186 184 188 177 171 165 200 290 191 185 178 180 188 198 205 206
328 332 334 334 337 336 337 336 334 329 314 310 315 321 325 325 317 319 302 258 234 223 219 212 202 196 195 187 180 172 182 196 175 164 189 207 204 197 184 178 184 195 201
330 335 339 340 339 339 341 342 341 334 331 334 338 335 329 321 321 327 319 299 263 234 227 219 205 197 201 195 190 181 176 176 187 173 178 192 200 218 200 188 187 192 195
Height
1552 1553 1554 1555 1555 1556 1556 1557 1557 1557 1558 1558 1559 1559 1559 1559 1560 1560 1560 1560 1560 1560 1560 1560 1559 1559 1559 1559 1559 1559 1558 1558 1557 1557 1556 1556 1555 1555 1555 1554 1554 1554 1555
1552 1553 1554 1555 1555 1556 1556 1557 1557 1557 1558 1558 1558 1559 1559 1559 1559 1559 1559 1559 1560 1560 1560 1560 1560 1560 1560 1560 1560 1559 1559 1559 1558 1558 1557 1557 1556 1556 1556 1555 1555 1555 1555
1552 1553 1554 1555 1556 1556 1556 1557 1557 1557 1557 1558 1558 1558 1559 1559 1559 1559 1559 1559 1559 1559 1559 1560 1560 1560 1560 1560 1560 1560 1560 1559 1559 1558 1558 1557 1557 1556 1556 1556 1556 1556 1556
1553 1554 1555 1555 1556 1556 1556 1557 1557 1557 1557 1557 1558 1558 1558 1558 1558 1558 1558 1559 1559 1559 1559 1559 1559 1559 1560 1560 1560 1560 1560 1560 1559 1559 1558 1558 1557 1557 1557 1556 1556 1556 1557
1554 1555 1555 1556 1556 1556 1556 1556 1556 1557 1557 1557 1557 1557 1557 1558 1558 1558 1558 1558 1558 1558 1558 1559 1559 1559 1559 1560 1560 1560 1560 1560 1559 1559 1559 1558 1558 1558 1557 1557 1557 1557 1557
1554 1555 1556 1556 1556 1556 1556 1556 1556 1556 1556 1556 1556 1557 1557 1557 1557 1557 1557 1557 1558 1558 1558 1558 1558 1559 1559 1560 1560 1560 1561 1560 1560 1560 1559 1559 1559 1558 1558 1558 1558 1558 1558
1554 1555 1556 1556 1556 1556 1556 1556 1556 1556 1556 1556 1556 1556 1556 1556 1556 1556 1556 1557 1557 1557 1557 1557 1558 1558 1559 1559 1560 1560 1560 1560 1560 1560 1560 1560 1560 1559 1559 1558 1558 1559 1559
1555 1555 1555 1555 1556 1555 1555 1555 1555 1555 1555 1555 1555 1555 1555 1555 1555 1555 1555 1556 1556 1556 1556 1556 1557 1557 1558 1558 1559 1560 1560 1560 1560 1560 1560 1560 1560 1560 1559 1559 1559 1559 1560
1555 1555 1555 1555 1555 1555 1555 1555 1554 1554 1554 1554 1554 1554 1554 1554 1554 1554 1554 1554 1555 1555 1555 1555 1556 1556 1557 1558 1558 1559 1560 1560 1560 1561 1561 1561 1561 1560 1560 1560 1560 1560 1560
1555 1555 1554 1554 1554 1554 1553 1553 1553 1553 1552 1552 1553 1552 1552 1552 1552 1553 1553 1553 1553 1553 1554 1554 1555 1555 1556 1557 1557 1558 1559 1560 1560 1561 1561 1561 1561 1561 1560 1560 1561 1561 1561
1555 1554 1554 1553 1552 1552 1551 1551 1551 1551 1550 1550 1550 1550 1551 1550 1551 1551 1551 1551 1552 1552 1552 1553 1553 1554 1554 1555 1556 1557 1558 1559 1560 1560 1561 1561 1561 1561 1561 1561 1561 1561 1562
1555 1554 1553 1552 1551 1550 1549 1549 1548 1548 1548 1548 1548 1548 1548 1548 1548 1548 1549 1549 1550 1550 1550 1551 1552 1552 1553 1554 1555 1556 1558 1558 1559 1560 1561 1561 1561 1560 1561 1561 1561 1562 1562
1555 1553 1552 1550 1549 1548 1547 1546 1545 1545 1545 1545 1545 1545 1545 1545 1546 1546 1546 1547 1547 1548 1548 1549 1550 1551 1552 1553 1554 1555 1557 1558 1559 1559 1560 1560 1560 1560 1560 1561 1561 1562 1562
1554 1552 1551 1549 1547 1546 1544 1543 1542 1542 1542 1541 1542 1542 1542 1542 1542 1543 1544 1545 1545 1546 1546 1547 1548 1549 1550 1552 1553 1554 1555 1557 1558 1559 1559 1560 1560 1559 1559 1560 1560 1561 1562
1553 1551 1549 1547 1545 1543 1541 1540 1539 1538 1538 1538 1538 1538 1538 1538 1538 1539 1540 1541 1542 1543 1544 1545 1546 1547 1549 1550 1551 1552 1554 1555 1556 1557 1558 1559 1559 1559 1559 1559 1560 1561 1562
1552 1549 1547 1545 1543 1541 1539 1537 1536 1535 1534 1534 1533 1533 1533 1534 1534 1535 1536 1536 1538 1540 1542 1543 1544 1545 1547 1548 1549 1550 1552 1553 1554 1556 1557 1558 1558 1558 1558 1558 1559 1560 1561
1550 1548 1545 1542 1540 1538 1535 1534 1532 1531 1530 1529 1529 1529 1529 1529 1530 1531 1532 1533 1534 1536 1538 1539 1541 1542 1544 1545 1546 1548 1549 1550 1552 1554 1555 1556 1557 1557 1557 1557 1558 1559 1560
1549 1546 1543 1540 1537 1535 1532 1530 1528 1527 1526 1525 1525 1524 1525 1525 1526 1527 1527 1529 1530 1532 1533 1535 1537 1539 1540 1542 1544 1545 1547 1548 1550 1552 1553 1554 1555 1556 1556 1557 1557 1558 1559
1548 1544 1541 1538 1534 1532 1529 1527 1525 1523 1521 1521 1520 1520 1520 1520 1521 1521 1523 1524 1526 1527 1529 1531 1532 1534 1536 1539 1541 1542 1544 1546 1548 1549 1551 1552 1554 1554 1555 1556 1556 1557 1558
1547 1543 1539 1535 1532 1529 1526 1523 1521 1519 1518 1516 1516 1515 1515 1516 1516 1517 1518 1519 1521 1523 1524 1526 1528 1530 1533 1535 1537 1539 1542 1543 1545 1547 1548 1550 1551 1553 1554 1554 1555 1556 1557
1545 1541 1537 1533 1530 1526 1523 1520 1517 1515 1514 1513 1512 1511 1511 1511 1511 1512 1513 1514 1516 1517 1519 1521 1523 1526 1528 1531 1534 1536 1538 1540 1542 1544 1545 1547 1549 1550 1551 1553 1554 1555 1556
1544 1540 1536 1532 1528 1525 1521 1518 1516 1513 1511 1509 1508 1508 1507 1507 1507 1507 1508 1509 1511 1512 1514 1516 1518 1520 1524 1527 1529 1532 1534 1537 1538 1540 1542 1544 1545 1547 1548 1550 1551 1553 1554
1543 1539 1535 1532 1528 1524 1520 1517 1514 1511 1508 1507 1505 1504 1504 1504 1503 1503 1504 1505 1506 1508 1509 1511 1514 1516 1519 1522 1525 1528 1530 1531 1534 1536 1537 1540 1542 1543 1545 1547 1548 1550 1552
1542 1539 1535 1531 1527 1523 1519 1516 1512 1509 1506 1505 1503 1502 1501 1500 1500 1500 1501 1501 1502 1503 1505 1507 1509 1511 1514 1517 1520 1523 1526 1527 1530 1531 1533 1535 1538 1540 1542 1543 1545 1547 1549
1542 1538 1535 1531 1527 1523 1519 1515 1512 1509 1506 1504 1502 1500 1498 1498 1498 1497 1497 1498 1499 1499 1501 1502 1504 1506 1509 1512 1514 1517 1520 1523 1525 1527 1528 1531 1534 1535 1537 1539 1541 1543 1545
1542 1538 1534 1530 1527 1522 1519 1515 1511 1508 1505 1502 1500 1498 1497 1496 1495 1495 1494 1495 1495 1496 1497 1498 1500 1502 1504 1507 1509 1512 1515 1518 1520 1522 1524 1527 1529 1531 1533 1535 1536 1539 1541